[[{"header":{"parameterUnit":"m.s-1","parameterCategory":1,"la1":30.2991,"la2":30.254,"lo1":-89.0895,"lo2":-89.0444,"dy":0.0017,"dx":0.0017,"nx":28,"ny":28,"refTime":"2023-09-17T21:00:00:Z","depth":0,"parameterNumber":2,"parameterNumberName":"U-component_of_WINDS"},"data":[0,0,0,0,0,0,0,0,0,0,0,0,0,0,0,0,0,0,0,0,0,0,0,0,0,0,0,0,0,0,0,0,0,0,0,0,0,0,0,0,0,0,0,0,0,0,0,0,0,0,0,0,0,0,0,0,0,0,-2.7136,-2.7135,0,-2.704,-2.7038,-2.7037,-2.6878,-2.6875,-2.6872,-2.6869,-2.6774,-2.6774,-2.6774,0,0,0,0,0,0,0,0,0,0,0,0,0,-2.7187,-2.7187,-2.7137,-2.7135,-2.7134,-2.704,-2.7038,-2.7037,-2.6878,-2.6875,-2.6871,-2.6868,-2.6773,-2.6774,-2.6774,0,0,0,0,0,0,0,0,0,0,0,0,0,-2.7135,-2.7187,-2.7137,-2.7043,-2.7034,-2.704,-2.7038,-2.7037,-2.6879,-2.6875,-2.687,-2.6866,-2.6773,-2.6774,-2.6774,-2.6864,0,0,-2.6775,-2.6775,0,0,0,0,0,0,0,0,-2.7139,-2.7134,-2.7058,-2.705,-2.7039,-2.6966,-2.7021,-2.6979,-2.688,-2.6938,-2.6869,-2.6864,-2.6841,-2.6836,-2.6827,-2.686,-2.6856,-2.6775,-2.6775,-2.6775,-2.6775,0,0,0,0,0,0,0,-2.7142,-2.7137,-2.7098,-2.7057,-2.7046,-2.7007,-2.6995,-2.7012,-2.6916,-2.6933,-2.6921,-2.6911,-2.6835,-2.6828,-2.6824,-2.6854,-2.6775,-2.6775,-2.6775,-2.6776,-2.6956,-2.696,0,0,0,0,0,0,-2.7159,-2.7141,-2.7101,-2.7095,-2.7079,-2.701,-2.6996,-2.6994,-2.6915,-2.6899,-2.6915,-2.6904,-2.6829,-2.6824,-2.682,-2.692,-2.6775,-2.6776,-2.6776,-2.6951,-2.6957,-2.6962,0,0,0,0,0,0,-2.7161,-2.7157,-2.7105,-2.7115,-2.7105,-2.7014,-2.7013,-2.6995,-2.6986,-2.6902,-2.6884,-2.6925,-2.6826,-2.682,-2.6854,-2.6915,-2.6776,-2.6776,-2.6946,-2.6953,-2.6959,-2.7122,0,0,0,0,0,0,-2.7163,-2.7159,-2.7191,-2.7117,-2.7105,-2.7141,-2.7016,-2.6996,-2.6987,-2.6972,-2.6906,-2.6891,-2.6822,-2.6855,-2.6855,-2.6913,-2.6776,-2.694,-2.6949,-2.6957,-2.7111,-2.7134,-2.7154,0,0,0,0,0,-2.7165,-2.7242,-2.7194,-2.719,-2.7144,-2.7144,-2.7138,-2.7055,-2.6993,-2.7025,-2.6971,-2.6893,-2.6908,-2.686,-2.6858,-2.6917,-2.6936,-2.6946,-2.6957,-2.7102,-2.713,-2.7153,0,0,0,0,0,0,-2.7327,-2.723,-2.7176,-2.7231,-2.7197,-2.7117,-2.7156,-2.7088,-2.7072,-2.7058,-2.6957,-2.6944,-2.6992,-2.6958,-2.6905,-2.7001,-2.691,-2.6921,-2.7021,-2.7047,-2.7067,-2.7075,-2.6776,0,0,0,0,0,-2.7369,-2.7376,-2.7292,-2.7348,-2.7334,-2.7249,-2.7245,-2.7184,-2.7146,-2.7131,-2.7079,-2.7046,-2.7042,-2.7043,-2.7035,-2.7105,-2.7089,-2.7146,-2.7167,-2.7185,-2.7195,-2.723,-2.7254,-2.6996,-2.6996,-2.6996,0,0,-2.7456,-2.7404,-2.7415,-2.7379,-2.7346,-2.7357,-2.7237,-2.7254,-2.7261,-2.7134,-2.7163,-2.7124,-2.708,-2.7133,-2.7153,-2.7106,-2.7263,-2.7198,-2.7213,-2.7213,-2.7243,-2.7267,-2.7289,-2.7003,-2.7002,-2.7001,0,0,-2.762,-2.7582,-2.7624,-2.7593,-2.7543,-2.7486,-2.7496,-2.7427,-2.7396,-2.7423,-2.7328,-2.7336,-2.7333,-2.7305,-2.729,-2.7444,-2.7372,-2.7445,-2.7555,-2.759,-2.7611,-2.7628,-2.7683,-2.7704,-2.7455,-2.7456,-2.7456,0,-2.7735,-2.7746,-2.7655,-2.7677,-2.7664,-2.7548,-2.7591,-2.7566,-2.7518,-2.7512,-2.7459,-2.7452,-2.7414,-2.7459,-2.7497,-2.7489,-2.7498,-2.7452,-2.7615,-2.7631,-2.7646,-2.7698,-2.7719,-2.7465,-2.7464,-2.7463,-2.7462,0,-2.7889,-2.7898,-2.7939,-2.7893,-2.7885,-2.7918,-2.7833,-2.7836,-2.7776,-2.7725,-2.7754,-2.7705,-2.7685,-2.7691,-2.7634,-2.7728,-2.77,-2.7633,-2.754,-2.7682,-2.7728,-2.7747,-2.7478,-2.7474,-2.7472,-2.747,0,0,-2.8152,-2.8056,-2.8072,-2.805,-2.7987,-2.7993,-2.8021,-2.8,-2.8005,-2.7975,-2.7996,-2.7996,-2.7933,-2.7917,-2.7855,-2.7886,-2.8011,-2.7815,-2.7812,-2.7853,-2.8112,-2.8163,-2.8188,-2.7963,-2.7966,-2.7969,-2.8116,0,-2.8303,-2.8343,-2.8262,-2.8322,-2.833,-2.8221,-2.8245,-2.8209,-2.8162,-2.8163,-2.811,-2.8112,-2.8029,-2.8018,-2.8044,-2.7991,-2.8062,-2.7979,-2.7982,-2.7984,-2.7997,-2.8212,-2.8265,-2.8406,-2.8134,-2.8137,-2.8139,0,-2.8483,-2.8462,-2.8523,-2.8456,-2.8456,-2.8479,-2.8454,-2.8455,-2.8413,-2.8377,-2.8359,-2.8286,-2.8309,-2.822,-2.8251,-2.8197,-2.8193,-2.8167,-2.8171,-2.8168,-2.807,-2.8215,-2.8449,-2.8471,-2.8166,-2.8164,-2.8162,0,-2.8669,-2.8656,-2.869,-2.8674,-2.8597,-2.8616,-2.8585,-2.8538,-2.8532,-2.851,-2.8504,-2.8487,-2.8477,-2.8466,-2.839,-2.8332,-2.8431,-2.8335,-2.8401,-2.8404,-2.8427,-2.8427,-2.8665,-2.8426,-2.8426,-2.8425,-2.8425,0,-2.8845,-2.8887,-2.8772,-2.8793,-2.8837,-2.8744,-2.879,-2.8748,-2.8708,-2.872,-2.8625,-2.8638,-2.8538,-2.854,-2.8482,-2.8516,-2.8513,-2.8485,-2.8469,-2.8493,-2.8497,-2.8489,-2.8478,-2.8431,-2.8429,-2.8428,-2.8427,0,-2.906,-2.8984,-2.9015,-2.8939,-2.8921,-2.8957,-2.8892,-2.8909,-2.8856,-2.8872,-2.8871,-2.8788,-2.8786,-2.871,-2.8693,-2.8653,-2.8712,-2.8678,-2.8727,-2.8716,-2.8786,-2.8781,-2.9028,-2.9056,-2.88,-2.8803,-2.8805,0,-2.9177,-2.9206,-2.9134,-2.9134,-2.9108,-2.911,-2.9102,-2.9012,-2.9008,-2.8962,-2.8986,-2.8976,-2.8963,-2.8966,-2.8905,-2.8891,-2.8856,-2.8944,-2.8853,-2.8877,-2.8857,-2.8856,-2.8859,-2.8963,-2.8966,-2.8969,-2.8971,0,-2.9393,-2.9355,-2.9346,-2.9325,-2.9318,-2.9298,-2.9271,-2.9277,-2.9179,-2.9179,-2.9176,-2.9166,-2.9148,-2.914,-2.9115,-2.9084,-2.9012,-2.9,-2.9014,-2.904,-2.9066,-2.9053,-2.8778,-2.8994,-2.8992,-2.899,-2.8989,-2.8988,-2.9562,-2.9583,-2.9535,-2.9529,-2.9499,-2.9477,-2.9489,-2.9437,-2.9432,-2.941,-2.9357,-2.9363,-2.932,-2.9279,-2.9254,-2.9258,-2.9213,-2.9235,-2.924,-2.9247,-2.9261,-2.9066,-2.9253,-2.9252,-2.9251,-2.9251,-2.925,0,-2.9773,-2.9737,-2.9732,-2.9698,-2.9693,-2.9625,-2.9592,-2.9593,-2.9598,-2.9564,-2.9554,-2.955,-2.9542,-2.948,-2.9465,-2.948,-2.9446,-2.9479,-2.9477,-2.9471,-2.9301,-2.929,-2.9506,-2.9506,-2.9506,-2.9506,-2.9506,-2.9506,-2.9882,-2.9914,-2.987,-2.9886,-2.9849,-2.9853,-2.984,-2.9819,-2.9791,-2.9791,-2.9783,-2.9743,-2.9698,-2.9679,-2.9668,-2.965,-2.9649,-2.9693,-2.9665,-2.9507,-2.9483,-2.9459,-2.9448,-2.9694,-2.9694,-2.9833,-2.9835,-2.9836]},{"header":{"parameterUnit":"m.s-1","parameterCategory":1,"la1":30.2991,"la2":30.254,"lo1":-89.0895,"lo2":-89.0444,"dy":0.0017,"dx":0.0017,"nx":28,"ny":28,"refTime":"2023-09-17T21:00:00:Z","depth":0,"parameterNumber":3,"parameterNumberName":"V-component_of_WINDS"},"data":[0,0,0,0,0,0,0,0,0,0,0,0,0,0,0,0,0,0,0,0,0,0,0,0,0,0,0,0,0,0,0,0,0,0,0,0,0,0,0,0,0,0,0,0,0,0,0,0,0,0,0,0,0,0,0,0,0,0,0.2054,0.2052,0,0.1891,0.1889,0.1887,0.1817,0.1817,0.1817,0.1817,0.1651,0.1646,0.1642,0,0,0,0,0,0,0,0,0,0,0,0,0,0.2307,0.2303,0.2054,0.2052,0.205,0.1891,0.1889,0.1887,0.1817,0.1817,0.1817,0.1818,0.1653,0.1647,0.1641,0,0,0,0,0,0,0,0,0,0,0,0,0,0.2176,0.2302,0.2055,0.1996,0.1989,0.1892,0.1889,0.1886,0.1817,0.1817,0.1817,0.1818,0.1654,0.1648,0.1641,0.1589,0,0,0.1619,0.1616,0,0,0,0,0,0,0,0,0.2184,0.2167,0.2007,0.2,0.1992,0.1875,0.1917,0.1787,0.1816,0.1882,0.1817,0.1818,0.1725,0.1712,0.1681,0.1582,0.1575,0.1619,0.1614,0.1611,0.1609,0,0,0,0,0,0,0,0.2193,0.2174,0.199,0.2005,0.1996,0.1979,0.196,0.1892,0.1803,0.1876,0.1871,0.1853,0.1721,0.1688,0.1676,0.1572,0.1619,0.1613,0.1608,0.1605,0.1423,0.1423,0,0,0,0,0,0,0.2211,0.2182,0.1995,0.1985,0.2091,0.1974,0.1953,0.1912,0.1804,0.1788,0.1852,0.185,0.17,0.1685,0.167,0.1603,0.1611,0.1605,0.1601,0.1424,0.1423,0.1423,0,0,0,0,0,0,0.2217,0.2195,0.2001,0.2082,0.2056,0.1969,0.1923,0.1908,0.1875,0.1786,0.177,0.1834,0.1699,0.168,0.161,0.1596,0.1602,0.1595,0.1425,0.1424,0.1423,0.1468,0,0,0,0,0,0,0.2225,0.2198,0.2177,0.2082,0.2052,0.1944,0.1922,0.1905,0.1863,0.1858,0.1765,0.1749,0.1698,0.1621,0.1603,0.1587,0.159,0.1426,0.1424,0.1423,0.1468,0.1469,0.147,0,0,0,0,0,0.2234,0.2196,0.2176,0.2154,0.2024,0.1943,0.1926,0.1867,0.1862,0.1841,0.1784,0.1752,0.1601,0.1614,0.1594,0.1575,0.1426,0.1425,0.1423,0.1467,0.1469,0.147,0,0,0,0,0,0,0.2292,0.2183,0.2159,0.2089,0.2026,0.1931,0.1902,0.1871,0.1807,0.1806,0.1736,0.1716,0.1652,0.1606,0.1623,0.152,0.1511,0.1506,0.1551,0.1552,0.1554,0.1565,0.1584,0,0,0,0,0,0.2297,0.224,0.2148,0.2095,0.2065,0.1989,0.1952,0.1912,0.1844,0.1817,0.1754,0.169,0.1627,0.1588,0.1525,0.1462,0.144,0.1439,0.144,0.1442,0.1437,0.14,0.1398,0.1418,0.1418,0.1418,0,0,0.2306,0.2239,0.2207,0.2105,0.2051,0.1994,0.1967,0.1908,0.1865,0.1808,0.1737,0.169,0.1613,0.1546,0.1513,0.1506,0.1427,0.144,0.1442,0.1436,0.1398,0.1397,0.1395,0.1417,0.1417,0.1417,0,0,0.2293,0.2237,0.2187,0.2134,0.2053,0.2003,0.1992,0.1901,0.1868,0.1796,0.1752,0.1701,0.1595,0.1542,0.1501,0.1471,0.144,0.1453,0.1459,0.1424,0.1422,0.142,0.1409,0.1405,0.1449,0.1449,0.1449,0,0.2314,0.2226,0.2165,0.2108,0.2065,0.2011,0.196,0.1912,0.1815,0.1787,0.1781,0.1647,0.1592,0.1512,0.1504,0.1473,0.1458,0.1462,0.1427,0.1425,0.1422,0.141,0.1406,0.1451,0.1451,0.1451,0.1451,0,0.2256,0.2196,0.2165,0.2073,0.2026,0.1973,0.1905,0.1865,0.1831,0.1782,0.1711,0.1643,0.1566,0.1544,0.151,0.146,0.1458,0.1441,0.143,0.1423,0.1411,0.1406,0.1454,0.1453,0.1453,0.1452,0,0,0.2272,0.2148,0.2138,0.2096,0.2003,0.1956,0.1901,0.1826,0.1793,0.1729,0.1681,0.1594,0.1577,0.1531,0.1491,0.1461,0.144,0.1447,0.1444,0.1447,0.138,0.1392,0.1388,0.142,0.1419,0.1418,0.1386,0,0.2245,0.2143,0.2088,0.2009,0.1953,0.1903,0.1855,0.1794,0.1747,0.1694,0.1643,0.1582,0.1565,0.1537,0.1505,0.145,0.1425,0.1451,0.1374,0.1372,0.1393,0.1381,0.1394,0.1367,0.1381,0.138,0.1379,0,0.22,0.2136,0.2052,0.1967,0.1941,0.1899,0.1826,0.1776,0.1706,0.1674,0.1624,0.1584,0.1525,0.1521,0.1438,0.1457,0.1423,0.1391,0.1389,0.1378,0.1374,0.1369,0.1357,0.1352,0.1371,0.1372,0.1373,0,0.2219,0.2113,0.2048,0.2014,0.1913,0.1885,0.1842,0.1772,0.1731,0.1668,0.1641,0.1572,0.1534,0.1482,0.1425,0.1428,0.1349,0.1339,0.132,0.1322,0.1304,0.1306,0.1285,0.1285,0.1285,0.1285,0.1286,0,0.2194,0.2144,0.2056,0.2016,0.1959,0.1897,0.1843,0.1796,0.1735,0.1686,0.1639,0.1594,0.1523,0.1469,0.1425,0.1363,0.1346,0.1319,0.1308,0.1322,0.1326,0.1297,0.1297,0.1284,0.1285,0.1285,0.1285,0,0.2204,0.2143,0.207,0.1981,0.1958,0.192,0.1844,0.1804,0.1757,0.1695,0.1677,0.1603,0.1537,0.1476,0.1389,0.1359,0.1297,0.1283,0.132,0.1313,0.1297,0.1299,0.1256,0.1247,0.1256,0.1256,0.1256,0,0.2191,0.2151,0.2059,0.2023,0.198,0.1923,0.188,0.1819,0.1777,0.1696,0.1666,0.1597,0.1538,0.1437,0.1375,0.1308,0.1291,0.1281,0.1281,0.1297,0.1289,0.1292,0.1287,0.1281,0.1282,0.1282,0.1282,0,0.2174,0.2146,0.2087,0.2017,0.1968,0.1911,0.1852,0.1825,0.1753,0.1708,0.1641,0.1596,0.1507,0.1439,0.1366,0.1322,0.129,0.1283,0.1275,0.1288,0.1311,0.1297,0.1321,0.1283,0.1283,0.1283,0.1283,0.1283,0.2171,0.2133,0.2063,0.1999,0.1948,0.1894,0.1852,0.18,0.1743,0.1666,0.1634,0.1565,0.1498,0.1396,0.1353,0.1299,0.1292,0.128,0.1277,0.1274,0.1277,0.1322,0.1286,0.1286,0.1285,0.1285,0.1285,0,0.215,0.2103,0.2044,0.1963,0.1913,0.1888,0.1822,0.1782,0.1722,0.1662,0.1606,0.1529,0.1464,0.1398,0.1329,0.1299,0.1282,0.1283,0.1283,0.1274,0.1288,0.1301,0.1297,0.1297,0.1297,0.1297,0.1297,0.1297,0.2133,0.2068,0.2033,0.1943,0.1896,0.1828,0.1793,0.1743,0.1695,0.1611,0.1557,0.1514,0.1452,0.1379,0.1318,0.13,0.1276,0.1281,0.1259,0.1273,0.1273,0.1272,0.1284,0.1277,0.1277,0.1249,0.1249,0.1248]}]]